Weather History for Gainesville, FL

Change the Weather History Date:

Wednesday, March 5, 2014

  Actual Average Record
Temperature  
Mean Temperature 50 °F 60 °F  
Max Temperature 54 °F 73 °F 87 °F (1961)
Min Temperature 46 °F 48 °F 28 °F (2002)
Degree Days  
Heating Degree Days 15 6  
Month to date heating degree days 34 30  
Since 1 July heating degree days 944 1064  
Cooling Degree Days 0 1  
Month to date cooling degree days 0 5  
Year to date cooling degree days 37 37  
Moisture  
Dew Point 47 °F    
Average Humidity 95    
Maximum Humidity 100    
Minimum Humidity 89    
Precipitation  
Precipitation 0.10 in 0.16 in 1.80 in (1957)
Month to date precipitation 0.10 0.76  
Year to date precipitation 9.67 7.27  
Snow  
Snow 0.00 in 0.00 in 0.00 in ()
Month to date snowfall 0.0 0.0  
Since 1 July snowfall 0.0 0.0  
Snow Depth 0.00 in    
Sea Level Pressure  
Sea Level Pressure 30.08 in    
Wind  
Wind Speed 6 mph (NE)    
Max Wind Speed 15 mph    
Max Gust Speed 27 mph    
Visibility 4 miles    
Events Rain    
T = Trace of Precipitation, MM = Missing Value Source: NWS Daily Summary

Daily Weather History Graph

Daily Weather History Graph

Search for Another Location

Airport:

Trip Planner

Search our weather history database for the weather conditions in past years. The results will help you decide how hot, cold, wet, or windy it might be!

Date:

Astronomy

Mar. 05, 2014 Rise Set
Actual Time 6:50 AM EST 6:31 PM EST
Civil Twilight 6:26 AM EST 6:54 PM EST
Nautical Twilight 5:58 AM EST 7:22 PM EST
Astronomical Twilight 5:31 AM EST 7:50 PM EST
Moon 9:37 AM EST (3/5) 11:14 PM EST (3/5)
Length of Visible Light 12h 28m
Length of Day
11h 40m
Waxing Crescent, 23% of the Moon is Illuminated
Mar 5
Waxing Crescent
Mar 8
First Quarter
Mar 16
Full
Mar 23
Last Quarter
Mar 30
New

Hourly Weather History & Observations

Time (EST) Temp. Windchill Dew Point Humidity Pressure Visibility Wind Dir Wind Speed Gust Speed Precip Events Conditions
12:41 AM 48.0 °F - 46.9 °F 96% 30.08 in 2.0 mi NE 8.1 mph - N/A   Overcast
12:53 AM 48.0 °F - 46.9 °F 96% 30.09 in 2.0 mi NE 4.6 mph - N/A   Overcast
1:06 AM 48.0 °F - 46.9 °F 96% 30.08 in 1.8 mi NE 5.8 mph - N/A   Overcast
1:53 AM 48.0 °F - 46.9 °F 96% 30.08 in 1.8 mi NNE 4.6 mph - N/A   Overcast
2:15 AM 48.0 °F - 46.9 °F 96% 30.07 in 2.0 mi NE 4.6 mph - N/A   Overcast
2:22 AM 48.0 °F - 46.9 °F 96% 30.07 in 1.8 mi NE 5.8 mph - N/A   Overcast
2:33 AM 48.0 °F - 46.9 °F 96% 30.05 in 2.0 mi NE 8.1 mph - N/A   Overcast
2:46 AM 48.0 °F - 46.9 °F 96% 30.05 in 1.8 mi ENE 6.9 mph - N/A   Overcast
2:53 AM 48.0 °F - 46.9 °F 96% 30.05 in 1.8 mi NE 5.8 mph - N/A   Overcast
3:02 AM 48.0 °F - 48.0 °F 100% 30.05 in 2.0 mi NNE 5.8 mph - N/A   Overcast
3:22 AM 48.0 °F - 46.9 °F 96% 30.04 in 1.5 mi NE 4.6 mph - N/A   Overcast
3:53 AM 48.0 °F - 46.9 °F 96% 30.04 in 1.5 mi NNE 6.9 mph - N/A   Overcast
4:51 AM 48.2 °F - 46.4 °F 93% 30.05 in 2.0 mi North 8.1 mph - N/A   Overcast
4:53 AM 48.0 °F - 46.9 °F 96% 30.05 in 2.0 mi North 6.9 mph - N/A   Overcast
5:01 AM 48.0 °F - 46.9 °F 96% 30.05 in 1.8 mi North 8.1 mph - N/A   Overcast
5:11 AM 46.9 °F - 46.9 °F 100% 30.05 in 2.0 mi North 5.8 mph - N/A   Overcast
5:53 AM 46.9 °F - 46.9 °F 100% 30.06 in 2.0 mi NNE 10.4 mph - 0.00 in Rain Light Rain
6:19 AM 46.9 °F - 46.0 °F 97% 30.08 in 3.0 mi NNW 4.6 mph - 0.00 in   Overcast
6:33 AM 46.9 °F - 45.0 °F 93% 30.10 in 4.0 mi NNW 11.5 mph - 0.00 in   Overcast
6:53 AM 46.0 °F 42.5 °F 45.0 °F 96% 30.09 in 4.0 mi North 6.9 mph - 0.00 in   Overcast
7:25 AM 46.0 °F 42.5 °F 45.0 °F 96% 30.08 in 2.5 mi NE 6.9 mph - 0.04 in Rain Rain
7:37 AM 46.0 °F 44.8 °F 45.0 °F 96% 30.10 in 4.0 mi Variable 3.5 mph - 0.05 in Rain Light Rain
7:53 AM 46.0 °F 43.1 °F 45.0 °F 96% 30.10 in 3.0 mi NNE 5.8 mph - 0.06 in Rain Rain
8:04 AM 46.0 °F 44.8 °F 45.0 °F 96% 30.11 in 4.0 mi ENE 3.5 mph - 0.02 in Rain Rain
8:53 AM 46.9 °F - 46.0 °F 97% 30.11 in 7.0 mi NE 5.8 mph - 0.04 in Rain Light Rain
9:28 AM 46.9 °F - 45.0 °F 93% 30.11 in 7.0 mi North 4.6 mph - 0.00 in   Overcast
9:53 AM 46.9 °F - 46.0 °F 97% 30.12 in 7.0 mi NNE 6.9 mph - 0.00 in   Overcast
10:53 AM 48.0 °F - 46.0 °F 93% 30.12 in 7.0 mi NNE 4.6 mph - N/A   Overcast
11:30 AM 48.9 °F - 46.9 °F 93% 30.11 in 6.0 mi NE 5.8 mph - N/A   Overcast
11:53 AM 48.9 °F - 46.9 °F 93% 30.11 in 6.0 mi Variable 4.6 mph - N/A   Overcast
12:22 PM 50.0 °F - 48.0 °F 93% 30.10 in 6.0 mi North 4.6 mph - N/A   Overcast
12:35 PM 50.0 °F - 48.0 °F 93% 30.08 in 5.0 mi NE 4.6 mph - N/A   Overcast
12:53 PM 50.0 °F - 48.0 °F 93% 30.09 in 5.0 mi Calm Calm - N/A   Overcast
1:23 PM 51.1 °F - 48.0 °F 89% 30.06 in 7.0 mi Variable 5.8 mph - N/A   Overcast
1:53 PM 52.0 °F - 48.9 °F 89% 30.04 in 7.0 mi East 6.9 mph - N/A   Overcast
2:53 PM 52.0 °F - 48.9 °F 89% 30.05 in 7.0 mi NNE 6.9 mph - N/A   Overcast
3:36 PM 50.0 °F - 48.0 °F 93% 30.04 in 3.0 mi NNE 11.5 mph - N/A   Overcast
3:53 PM 50.0 °F - 48.0 °F 93% 30.04 in 4.0 mi ENE 9.2 mph - N/A   Overcast
4:53 PM 48.9 °F - 48.0 °F 97% 30.05 in 4.0 mi NE 5.8 mph - N/A   Overcast
5:42 PM 48.0 °F - 46.9 °F 96% 30.05 in 2.0 mi NNE 8.1 mph - N/A   Overcast
5:53 PM 48.0 °F - 46.9 °F 96% 30.06 in 1.8 mi ENE 6.9 mph - 0.00 in Rain Light Rain
6:07 PM 48.0 °F - 46.9 °F 96% 30.07 in 2.5 mi NNE 9.2 mph - 0.00 in   Overcast
6:36 PM 48.0 °F - 46.9 °F 96% 30.07 in 1.0 mi ENE 6.9 mph - 0.00 in Rain Light Rain
6:53 PM 48.0 °F - 46.9 °F 96% 30.08 in 1.0 mi NE 6.9 mph - 0.00 in Rain Light Rain
7:13 PM 48.0 °F - 46.9 °F 96% 30.07 in 4.0 mi ENE 6.9 mph - 0.00 in Rain Light Rain
7:53 PM 48.9 °F - 48.0 °F 97% 30.09 in 4.0 mi NNE 5.8 mph - 0.00 in   Overcast
8:53 PM 48.9 °F - 48.0 °F 97% 30.08 in 4.0 mi NE 6.9 mph - 0.00 in   Overcast
9:53 PM 48.9 °F - 48.0 °F 97% 30.09 in 4.0 mi ENE 6.9 mph - N/A   Overcast
10:53 PM 48.9 °F - 48.9 °F 100% 30.10 in 3.0 mi NNE 5.8 mph - N/A   Overcast
11:53 PM 48.9 °F - 48.0 °F 97% 30.10 in 3.0 mi NE 9.2 mph - N/A   Overcast